Tracking 31027 objects as of 19-Jul-2025
HD Live streaming from Space Station
objects crossing your sky now

OSCAR 22 (UoSAT 5)

Track OSCAR 22 (UoSAT 5) now!
10-day predictions
OSCAR 22 (UoSAT 5) is classified as:


NORAD ID: 21575
Int'l Code: 1991-050B
Perigee: 752.5 km
Apogee: 764.5 km
Inclination: 98.4 °
Period: 99.9 minutes
Semi major axis: 7129 km
RCS: 0.42 m2 (medium)
Launch date: July 17, 1991
Source: United Kingdom (UK)
Launch site: FRENCH GUIANA (FRGUI)

Uplink (MHz): 145.900/145.975
Downlink (MHz): 435.120
Beacon (MHz):
Mode: 9600bps FSK
Call sign: UOSAT5-11 12
Status: Inactive


Earth imaging system; store-and-forward communications system; semi-operational in 2004.
Your satellite tracking list
COSMOS 2502
Track 1 satellite(s)




NASA's NSSDC Master Catalog

Two Line Element Set (TLE):
1 21575U 91050B   25199.48109616  .00000132  00000-0  53171-4 0  9993
2 21575  98.3933 269.2237 0008429 100.3298 259.8842 14.42151551786440
Source of the keplerian elements: AFSPC